TimeEDT,TemperatureF,Dew PointF,Humidity,Sea Level PressureIn,VisibilityMPH,Wind Direction,Wind SpeedMPH,Gust SpeedMPH,PrecipitationIn,Events,Conditions,WindDirDegrees,DateUTC
12:53 AM,73.0,66.9,81,30.08,10.0,Calm,Calm,-,N/A,,Mostly Cloudy,0,2013-07-04 04:53:00
1:53 AM,73.9,68.0,82,30.07,10.0,Calm,Calm,-,N/A,,Overcast,0,2013-07-04 05:53:00
2:53 AM,73.0,66.9,81,30.08,10.0,South,8.1,-,N/A,,Mostly Cloudy,170,2013-07-04 06:53:00
3:53 AM,71.1,66.0,84,30.08,10.0,South,3.5,-,N/A,,Partly Cloudy,180,2013-07-04 07:53:00
4:53 AM,73.0,66.0,79,30.08,10.0,South,6.9,-,N/A,,Scattered Clouds,180,2013-07-04 08:53:00
5:53 AM,72.0,66.9,84,30.09,10.0,South,4.6,-,N/A,,Clear,190,2013-07-04 09:53:00
6:53 AM,72.0,66.9,84,30.10,8.0,South,5.8,-,N/A,,Scattered Clouds,190,2013-07-04 10:53:00
7:53 AM,73.0,66.9,81,30.12,10.0,SSW,8.1,-,N/A,,Clear,200,2013-07-04 11:53:00
8:53 AM,75.0,66.0,73,30.12,10.0,SW,8.1,-,N/A,,Clear,230,2013-07-04 12:53:00
9:53 AM,79.0,64.9,62,30.14,10.0,SSW,8.1,-,N/A,,Clear,210,2013-07-04 13:53:00
10:53 AM,79.0,63.0,58,30.12,10.0,West,8.1,-,N/A,,Mostly Cloudy,260,2013-07-04 14:53:00
11:53 AM,81.0,64.0,56,30.13,10.0,SSW,11.5,-,N/A,,Scattered Clouds,200,2013-07-04 15:53:00
12:53 PM,82.9,62.1,49,30.13,10.0,SSW,10.4,-,N/A,,Partly Cloudy,200,2013-07-04 16:53:00
1:53 PM,84.0,62.1,47,30.12,10.0,SSW,13.8,-,0.00,,Partly Cloudy,210,2013-07-04 17:53:00
2:53 PM,84.0,63.0,49,30.11,10.0,WSW,12.7,16.1,N/A,,Scattered Clouds,240,2013-07-04 18:53:00
3:53 PM,82.9,62.1,49,30.11,10.0,WSW,10.4,-,N/A,,Partly Cloudy,250,2013-07-04 19:53:00
4:53 PM,82.9,62.1,49,30.10,10.0,WSW,9.2,-,N/A,,Clear,250,2013-07-04 20:53:00
5:53 PM,81.0,61.0,50,30.09,10.0,WSW,6.9,-,N/A,,Clear,240,2013-07-04 21:53:00
6:53 PM,81.0,61.0,50,30.08,10.0,SW,5.8,-,N/A,,Mostly Cloudy,230,2013-07-04 22:53:00
7:53 PM,80.1,64.9,60,30.08,10.0,South,4.6,-,N/A,,Scattered Clouds,170,2013-07-04 23:53:00
8:53 PM,77.0,66.9,71,30.08,10.0,SE,4.6,-,N/A,,Overcast,140,2013-07-05 00:53:00
9:53 PM,75.9,66.9,74,30.09,10.0,SSE,5.8,-,N/A,,Mostly Cloudy,160,2013-07-05 01:53:00
10:53 PM,73.9,68.0,82,30.10,8.0,SE,4.6,-,N/A,,Overcast,140,2013-07-05 02:53:00
11:53 PM,73.0,68.0,84,30.10,8.0,Calm,Calm,-,N/A,,Mostly Cloudy,0,2013-07-05 03:53:00